When you browse on this site, cookies collect data to enhance your experience and personalize the content and advertising you see.
Visit our Privacy Policy to learn more. By continuing to use the site, you agree to this use of cookies and data.
  • In Deutschland
  • Länderverzeichnis
  • Für 7 Tage
  • Wassertemperatur
  • Wetterkarte
  • Widgets
  • user-avatar
    Anmelden

    Stündliche Wetter Kipungo

    Heute, 11 Dezember, Mittwoch

    Zeit Temperatur Niederschläge Wind Luftdruck Luftfeuchtigkeit
    00:00 +16°C° 0 mm 1 m/S 652 mmHg 81%
    01:00 +16°C° 0 mm 1 m/S 652 mmHg 83%
    02:00 +16°C° 0 mm 1 m/S 652 mmHg 86%
    03:00 +14°C° 0 mm 0 m/S 651 mmHg 89%
    04:00 +14°C° 0 mm 0 m/S 651 mmHg 91%
    05:00 +15°C° 0 mm 0 m/S 652 mmHg 86%
    06:00 +17°C° 0 mm 0 m/S 653 mmHg 81%
    07:00 +18°C° 0 mm 0 m/S 654 mmHg 74%
    08:00 +22°C° 0 mm 0 m/S 654 mmHg 62%
    09:00 +27°C° 0 mm 1 m/S 655 mmHg 50%
    10:00 +30°C° 0 mm 1 m/S 655 mmHg 38%
    11:00 +31°C° 0 mm 1 m/S 655 mmHg 33%
    12:00 +31°C° 0 mm 1 m/S 655 mmHg 29%
    13:00 +32°C° 0 mm 2 m/S 655 mmHg 25%
    14:00 +32°C° 0 mm 2 m/S 654 mmHg 25%
    15:00 +31°C° 0 mm 3 m/S 653 mmHg 26%
    16:00 +30°C° 0 mm 3 m/S 653 mmHg 26%
    17:00 +28°C° 0 mm 3 m/S 653 mmHg 33%
    18:00 +25°C° 0 mm 2 m/S 652 mmHg 39%
    19:00 +23°C° 0 mm 2 m/S 652 mmHg 46%
    20:00 +21°C° 0 mm 2 m/S 653 mmHg 49%
    21:00 +20°C° 0 mm 2 m/S 653 mmHg 51%
    22:00 +19°C° 0 mm 2 m/S 653 mmHg 54%
    23:00 +20°C° 0 mm 1 m/S 653 mmHg 57%

    Morgen, 12 Dezember, Donnerstag

    Zeit Temperatur Niederschläge Wind Luftdruck Luftfeuchtigkeit
    00:00 +19°C° 0 mm 1 m/S 653 mmHg 60%
    01:00 +19°C° 0 mm 1 m/S 653 mmHg 63%
    02:00 +18°C° 0 mm 1 m/S 652 mmHg 65%
    03:00 +16°C° 0 mm 0 m/S 652 mmHg 67%
    04:00 +15°C° 0 mm 0 m/S 651 mmHg 69%
    05:00 +16°C° 0 mm 0 m/S 652 mmHg 66%
    06:00 +18°C° 0 mm 0 m/S 653 mmHg 62%
    07:00 +21°C° 0 mm 1 m/S 654 mmHg 59%
    08:00 +23°C° 0 mm 0 m/S 655 mmHg 49%
    09:00 +27°C° 0 mm 0 m/S 655 mmHg 40%
    10:00 +31°C° 0 mm 0 m/S 656 mmHg 30%
    11:00 +31°C° 0 mm 0 m/S 656 mmHg 27%
    12:00 +34°C° 0 mm 1 m/S 655 mmHg 24%
    13:00 +34°C° 0 mm 1 m/S 655 mmHg 22%
    14:00 +34°C° 0 mm 1 m/S 654 mmHg 22%
    15:00 +33°C° 0 mm 1 m/S 653 mmHg 22%
    16:00 +33°C° 0 mm 1 m/S 653 mmHg 22%
    17:00 +30°C° 0 mm 1 m/S 653 mmHg 28%
    18:00 +28°C° 0 mm 1 m/S 653 mmHg 35%
    19:00 +25°C° 0 mm 1 m/S 652 mmHg 42%
    20:00 +24°C° 0 mm 2 m/S 653 mmHg 46%
    21:00 +23°C° 0 mm 2 m/S 653 mmHg 51%
    22:00 +21°C° 0 mm 2 m/S 653 mmHg 55%
    23:00 +20°C° 0 mm 2 m/S 653 mmHg 59%

    übermorgen, 13 Dezember, Freitag

    Zeit Temperatur Niederschläge Wind Luftdruck Luftfeuchtigkeit
    00:00 +19°C° 0 mm 2 m/S 653 mmHg 63%
    01:00 +19°C° 0 mm 2 m/S 653 mmHg 66%
    02:00 +19°C° 0 mm 1 m/S 652 mmHg 68%
    03:00 +19°C° 0 mm 1 m/S 652 mmHg 69%
    04:00 +19°C° 0 mm 1 m/S 652 mmHg 70%
    05:00 +20°C° 0 mm 1 m/S 653 mmHg 65%
    06:00 +21°C° 0 mm 1 m/S 653 mmHg 60%
    07:00 +22°C° 0 mm 1 m/S 654 mmHg 56%
    08:00 +25°C° 0 mm 1 m/S 655 mmHg 46%
    09:00 +29°C° 0 mm 1 m/S 655 mmHg 36%
    10:00 +32°C° 0 mm 1 m/S 656 mmHg 27%
    11:00 +33°C° 0 mm 1 m/S 655 mmHg 25%
    12:00 +34°C° 0 mm 1 m/S 655 mmHg 23%
    13:00 +36°C° 0 mm 1 m/S 655 mmHg 21%
    14:00 +36°C° 0 mm 2 m/S 654 mmHg 22%
    15:00 +35°C° 0 mm 2 m/S 653 mmHg 23%
    16:00 +35°C° 0 mm 2 m/S 653 mmHg 25%
    17:00 +31°C° 0 mm 2 m/S 653 mmHg 30%
    18:00 +29°C° 0 mm 1 m/S 653 mmHg 36%
    19:00 +26°C° 0 mm 1 m/S 652 mmHg 42%
    20:00 +25°C° 0 mm 1 m/S 653 mmHg 47%
    21:00 +24°C° 0 mm 2 m/S 653 mmHg 52%
    22:00 +23°C° 0 mm 2 m/S 653 mmHg 57%
    23:00 +21°C° 0 mm 2 m/S 653 mmHg 59%

    14 Dezember, Samstag

    Zeit Temperatur Niederschläge Wind Luftdruck Luftfeuchtigkeit
    00:00 +20°C° 0 mm 2 m/S 652 mmHg 61%
    01:00 +21°C° 0 mm 1 m/S 652 mmHg 64%
    02:00 +21°C° 0 mm 1 m/S 652 mmHg 61%
    03:00 +21°C° 0 mm 1 m/S 652 mmHg 57%
    04:00 +21°C° 0 mm 1 m/S 652 mmHg 54%
    05:00 +21°C° 0 mm 1 m/S 652 mmHg 52%
    06:00 +22°C° 0 mm 1 m/S 653 mmHg 50%
    07:00 +23°C° 0 mm 1 m/S 653 mmHg 48%
    08:00 +26°C° 0 mm 1 m/S 654 mmHg 42%
    09:00 +28°C° 0 mm 1 m/S 654 mmHg 36%
    10:00 +31°C° 0 mm 1 m/S 655 mmHg 30%
    11:00 +32°C° 0 mm 1 m/S 655 mmHg 28%
    12:00 +35°C° 0 mm 2 m/S 654 mmHg 26%
    13:00 +37°C° 0 mm 2 m/S 654 mmHg 24%
    14:00 +36°C° 0 mm 2 m/S 654 mmHg 25%
    15:00 +35°C° 0 mm 2 m/S 653 mmHg 27%
    16:00 +34°C° 0 mm 1 m/S 653 mmHg 29%
    17:00 +31°C° 0 mm 2 m/S 653 mmHg 35%
    18:00 +29°C° 0 mm 3 m/S 653 mmHg 42%
    19:00 +27°C° 0 mm 4 m/S 653 mmHg 48%
    20:00 +25°C° 0 mm 3 m/S 653 mmHg 58%
    21:00 +24°C° 0 mm 3 m/S 653 mmHg 68%
    22:00 +21°C° 0 mm 2 m/S 653 mmHg 78%
    23:00 +21°C° 0 mm 2 m/S 653 mmHg 81%

    15 Dezember, Sonntag

    Zeit Temperatur Niederschläge Wind Luftdruck Luftfeuchtigkeit
    00:00 +20°C° 0 mm 2 m/S 653 mmHg 84%
    01:00 +20°C° 0 mm 2 m/S 652 mmHg 87%
    02:00 +20°C° 0 mm 2 m/S 652 mmHg 86%
    03:00 +21°C° 0 mm 1 m/S 652 mmHg 86%
    04:00 +21°C° 0 mm 1 m/S 652 mmHg 86%
    05:00 +22°C° 0 mm 1 m/S 652 mmHg 81%
    06:00 +22°C° 0 mm 1 m/S 653 mmHg 77%
    07:00 +23°C° 0 mm 1 m/S 653 mmHg 73%
    08:00 +25°C° 0 mm 0 m/S 654 mmHg 60%
    09:00 +28°C° 0 mm 0 m/S 655 mmHg 48%
    10:00 +32°C° 0 mm 0 m/S 656 mmHg 35%
    11:00 +35°C° 0 mm 1 m/S 655 mmHg 32%
    12:00 +35°C° 0 mm 1 m/S 655 mmHg 29%
    13:00 +37°C° 0 mm 2 m/S 654 mmHg 26%
    14:00 +36°C° 0 mm 2 m/S 653 mmHg 29%
    15:00 +34°C° 0 mm 2 m/S 653 mmHg 31%
    16:00 +32°C° 0 mm 2 m/S 652 mmHg 34%
    17:00 +29°C° 0.4 mm 2 m/S 652 mmHg 46%
    18:00 +27°C° 0.4 mm 3 m/S 652 mmHg 59%
    19:00 +23°C° 0.4 mm 4 m/S 651 mmHg 71%
    20:00 +22°C° 0.2 mm 3 m/S 652 mmHg 76%
    21:00 +21°C° 0.2 mm 3 m/S 652 mmHg 81%
    22:00 +20°C° 0.2 mm 3 m/S 653 mmHg 86%
    23:00 +20°C° 0 mm 2 m/S 652 mmHg 86%

    16 Dezember, Montag

    Zeit Temperatur Niederschläge Wind Luftdruck Luftfeuchtigkeit
    00:00 +20°C° 0 mm 2 m/S 652 mmHg 87%
    01:00 +20°C° 0 mm 2 m/S 652 mmHg 88%
    02:00 +21°C° 0 mm 1 m/S 651 mmHg 86%
    03:00 +21°C° 0 mm 1 m/S 651 mmHg 85%
    04:00 +21°C° 0 mm 1 m/S 651 mmHg 83%
    05:00 +22°C° 0 mm 1 m/S 652 mmHg 80%
    06:00 +23°C° 0 mm 1 m/S 652 mmHg 77%
    07:00 +23°C° 0 mm 1 m/S 653 mmHg 74%
    08:00 +25°C° 0 mm 0 m/S 653 mmHg 63%
    09:00 +28°C° 0 mm 0 m/S 654 mmHg 52%
    10:00 +31°C° 0 mm 0 m/S 655 mmHg 41%
    11:00 +32°C° 0 mm 1 m/S 654 mmHg 42%
    12:00 +31°C° 0 mm 2 m/S 653 mmHg 43%
    13:00 +30°C° 0 mm 3 m/S 652 mmHg 44%
    14:00 +30°C° 0.1 mm 3 m/S 651 mmHg 44%
    15:00 +30°C° 0.1 mm 2 m/S 651 mmHg 43%
    16:00 +30°C° 0.1 mm 2 m/S 651 mmHg 42%
    17:00 +28°C° 0.5 mm 2 m/S 651 mmHg 53%
    18:00 +25°C° 0.5 mm 2 m/S 651 mmHg 64%
    19:00 +23°C° 0.5 mm 2 m/S 651 mmHg 74%
    20:00 +21°C° 0.7 mm 2 m/S 651 mmHg 78%
    21:00 +22°C° 0.7 mm 1 m/S 651 mmHg 82%
    22:00 +21°C° 0.7 mm 1 m/S 652 mmHg 86%
    23:00 +21°C° 0 mm 1 m/S 651 mmHg 87%
    Mehr zeigen